[[{"header":{"parameterUnit":"m.s-1","parameterCategory":2,"la1":30.2991,"la2":30.254,"lo1":-89.0895,"lo2":-89.0444,"dy":0.0017,"dx":0.0017,"nx":28,"ny":28,"refTime":"2025-03-18T21:00:00:Z","depth":"0","parameterNumber":2,"parameterNumberName":"U-component_of_CURRENTS"},"data":[0,0,0,0,0,0,0,0,0,0,0,0,0,0,0,0,0,0,0,0,0,0,0,0,0,0,0,0,0,0,0,0,0,0,0,0,0,0,0,0,0,0,0,0,0,0,0,0,0,0,0,0,0,0,0,0,0,0,0.2733,0.2733,0,0.2731,0.2731,0.2731,0.2712,0.2712,0.2711,0.2711,0.2713,0.2713,0.2713,0,0,0,0,0,0,0,0,0,0,0,0,0,0.2701,0.2701,0.2733,0.2733,0.2733,0.2731,0.2731,0.2731,0.2712,0.2712,0.2711,0.2711,0.2713,0.2713,0.2713,0,0,0,0,0,0,0,0,0,0,0,0,0,0.2706,0.2701,0.2733,0.2726,0.2726,0.2731,0.2731,0.273,0.2712,0.2712,0.2711,0.2711,0.2713,0.2713,0.2713,0.2721,0,0,0.2715,0.2715,0,0,0,0,0,0,0,0,0.2705,0.2706,0.2727,0.2726,0.2726,0.2724,0.272,0.2729,0.2712,0.2714,0.2711,0.2711,0.2719,0.2719,0.2715,0.2722,0.2722,0.2715,0.2715,0.2715,0.2715,0,0,0,0,0,0,0,0.2705,0.2706,0.2729,0.2727,0.2727,0.2717,0.2717,0.2721,0.2716,0.2714,0.2713,0.2718,0.2719,0.2715,0.2715,0.2722,0.2715,0.2715,0.2715,0.2715,0.279,0.2791,0,0,0,0,0,0,0.2713,0.2706,0.2729,0.2729,0.2718,0.2718,0.2718,0.2723,0.2716,0.2715,0.2718,0.2717,0.2714,0.2715,0.2715,0.2766,0.2715,0.2715,0.2715,0.2788,0.279,0.2792,0,0,0,0,0,0,0.2712,0.2715,0.2729,0.272,0.2721,0.2719,0.2724,0.2723,0.2725,0.272,0.2718,0.2723,0.2714,0.2715,0.2728,0.2764,0.2715,0.2716,0.2786,0.2789,0.2791,0.2841,0,0,0,0,0,0,0.2711,0.2715,0.272,0.2721,0.2722,0.274,0.2725,0.2723,0.2729,0.2728,0.2724,0.2723,0.2714,0.2728,0.2729,0.2764,0.2716,0.2784,0.2787,0.279,0.2837,0.2845,0.2852,0,0,0,0,0,0.271,0.2721,0.2721,0.2724,0.2731,0.2741,0.2741,0.2736,0.273,0.2736,0.2734,0.2723,0.275,0.2729,0.273,0.2766,0.2782,0.2786,0.279,0.2834,0.2844,0.2852,0,0,0,0,0,0,0.2707,0.2721,0.272,0.2734,0.2741,0.274,0.2743,0.2743,0.2745,0.2743,0.2735,0.2735,0.2759,0.2759,0.2736,0.28,0.2769,0.2774,0.2803,0.2812,0.2819,0.287,0.2716,0,0,0,0,0,0.2712,0.2723,0.2733,0.2743,0.2748,0.2747,0.2751,0.2751,0.2753,0.2753,0.2755,0.2763,0.2777,0.2789,0.2793,0.2826,0.2842,0.2855,0.2862,0.2868,0.2913,0.2976,0.2993,0.2805,0.2805,0.2805,0,0,0.2713,0.2722,0.2728,0.2744,0.2745,0.276,0.2748,0.2758,0.2785,0.2755,0.2786,0.278,0.2788,0.2821,0.2835,0.2826,0.2919,0.2874,0.2879,0.292,0.2982,0.3,0.3017,0.2808,0.2807,0.2807,0,0,0.2723,0.273,0.2744,0.2747,0.2759,0.2771,0.2778,0.2787,0.2805,0.2831,0.2821,0.2857,0.2859,0.2895,0.2908,0.2967,0.2947,0.2949,0.3039,0.3099,0.3115,0.313,0.3123,0.3137,0.2964,0.2965,0.2965,0,0.2725,0.2753,0.2749,0.2757,0.278,0.278,0.281,0.2823,0.2839,0.288,0.285,0.291,0.2913,0.2989,0.301,0.299,0.2986,0.2998,0.3109,0.3125,0.3139,0.3129,0.3144,0.2967,0.2967,0.2967,0.2967,0,0.2743,0.2766,0.2774,0.2796,0.2813,0.2841,0.2863,0.2895,0.2919,0.2945,0.3017,0.3022,0.3068,0.3071,0.306,0.3165,0.3112,0.3098,0.3086,0.3161,0.3144,0.3159,0.2972,0.2971,0.297,0.2969,0,0,0.2751,0.2789,0.279,0.2819,0.2849,0.2866,0.2925,0.3003,0.3055,0.3081,0.316,0.3211,0.3214,0.3234,0.3221,0.329,0.3367,0.3243,0.3245,0.3235,0.3444,0.3434,0.3448,0.3359,0.3363,0.3367,0.3372,0,0.2781,0.2821,0.2843,0.2896,0.2927,0.2963,0.3023,0.308,0.3127,0.3188,0.3243,0.3284,0.3271,0.328,0.3354,0.3364,0.3416,0.3365,0.3377,0.3377,0.3361,0.3471,0.3575,0.3594,0.3386,0.3389,0.339,0,0.2794,0.2831,0.289,0.2977,0.2996,0.3029,0.314,0.3192,0.328,0.332,0.3386,0.3378,0.3478,0.3436,0.3544,0.3499,0.3493,0.35,0.3499,0.3501,0.3399,0.3498,0.3628,0.369,0.3413,0.3411,0.3409,0,0.2796,0.287,0.2934,0.2949,0.3032,0.3089,0.3151,0.3238,0.3299,0.3389,0.3425,0.3511,0.3544,0.3593,0.3594,0.3569,0.3682,0.3641,0.3624,0.3618,0.3725,0.3723,0.3933,0.3732,0.3732,0.3732,0.3732,0,0.2819,0.2863,0.2937,0.2955,0.3044,0.3101,0.3197,0.3269,0.3365,0.3435,0.3482,0.3533,0.3591,0.3627,0.363,0.368,0.371,0.3685,0.3657,0.3736,0.3736,0.3805,0.3793,0.3732,0.3732,0.3732,0.3732,0,0.2786,0.284,0.2899,0.2998,0.3032,0.3082,0.3199,0.326,0.3368,0.3452,0.3476,0.3569,0.3648,0.3668,0.3734,0.3727,0.3731,0.3754,0.3807,0.379,0.3848,0.3832,0.3703,0.3599,0.3771,0.3771,0.3772,0,0.2775,0.2801,0.2888,0.2913,0.2956,0.3042,0.31,0.3236,0.3303,0.3466,0.3504,0.3597,0.3672,0.3767,0.3809,0.3838,0.3736,0.3888,0.3903,0.3922,0.3883,0.3608,0.3509,0.4028,0.403,0.4032,0.4033,0,0.2745,0.2766,0.2805,0.2853,0.2908,0.2972,0.3075,0.313,0.3292,0.3394,0.3515,0.3592,0.3747,0.3865,0.3912,0.3935,0.3842,0.3926,0.3983,0.4164,0.3848,0.3711,0.3882,0.4051,0.4049,0.4048,0.4047,0.4046,0.2705,0.2708,0.2743,0.2786,0.2838,0.2882,0.2921,0.3051,0.3165,0.3339,0.3465,0.366,0.3948,0.4084,0.4032,0.4166,0.3929,0.4203,0.419,0.3908,0.3817,0.3989,0.4101,0.41,0.4099,0.4098,0.4097,0,0.264,0.2648,0.2677,0.2716,0.2731,0.2789,0.2884,0.293,0.3042,0.3318,0.3471,0.3884,0.4124,0.4296,0.4555,0.452,0.4227,0.4453,0.4201,0.4091,0.4365,0.44,0.4541,0.4541,0.4541,0.4541,0.4541,0.4541,0.2607,0.259,0.26,0.2594,0.2621,0.263,0.2662,0.2761,0.2961,0.3264,0.3559,0.3792,0.4319,0.4837,0.5,0.4867,0.4554,0.4392,0.4197,0.4607,0.4584,0.4562,0.4599,0.4779,0.478,0.3846,0.3841,0.3837]},{"header":{"parameterUnit":"m.s-1","parameterCategory":2,"la1":30.2991,"la2":30.254,"lo1":-89.0895,"lo2":-89.0444,"dy":0.0017,"dx":0.0017,"nx":28,"ny":28,"refTime":"2025-03-18T21:00:00:Z","depth":"0","parameterNumber":3,"parameterNumberName":"V-component_of_CURRENTS"},"data":[0,0,0,0,0,0,0,0,0,0,0,0,0,0,0,0,0,0,0,0,0,0,0,0,0,0,0,0,0,0,0,0,0,0,0,0,0,0,0,0,0,0,0,0,0,0,0,0,0,0,0,0,0,0,0,0,0,0,-0.0265,-0.0266,0,-0.0348,-0.0349,-0.035,-0.0401,-0.0401,-0.0401,-0.0401,-0.0463,-0.0464,-0.0466,0,0,0,0,0,0,0,0,0,0,0,0,0,-0.0218,-0.0218,-0.0265,-0.0266,-0.0267,-0.0348,-0.0349,-0.035,-0.0401,-0.0401,-0.0401,-0.0401,-0.0462,-0.0464,-0.0466,0,0,0,0,0,0,0,0,0,0,0,0,0,-0.0265,-0.0219,-0.0265,-0.03,-0.0304,-0.0347,-0.0349,-0.0351,-0.0401,-0.0401,-0.0401,-0.0401,-0.0462,-0.0464,-0.0466,-0.0479,0,0,-0.0474,-0.0475,0,0,0,0,0,0,0,0,-0.0262,-0.0267,-0.0294,-0.0298,-0.0302,-0.0362,-0.0355,-0.0392,-0.0401,-0.0366,-0.0401,-0.0401,-0.0426,-0.0431,-0.045,-0.0482,-0.0485,-0.0474,-0.0475,-0.0476,-0.0477,0,0,0,0,0,0,0,-0.0259,-0.0264,-0.03,-0.0295,-0.03,-0.0335,-0.0341,-0.0363,-0.0396,-0.0369,-0.0373,-0.0378,-0.0428,-0.0447,-0.0451,-0.0486,-0.0474,-0.0476,-0.0477,-0.0478,-0.0529,-0.0529,0,0,0,0,0,0,-0.0241,-0.0261,-0.0297,-0.0302,-0.028,-0.0335,-0.0342,-0.0345,-0.0396,-0.0404,-0.0378,-0.038,-0.0443,-0.0449,-0.0454,-0.0429,-0.0476,-0.0479,-0.048,-0.0529,-0.0529,-0.0529,0,0,0,0,0,0,-0.024,-0.0243,-0.0294,-0.0282,-0.0291,-0.0335,-0.0338,-0.0346,-0.0362,-0.0403,-0.041,-0.0384,-0.0444,-0.045,-0.0469,-0.0433,-0.048,-0.0482,-0.0529,-0.0529,-0.0529,-0.0407,0,0,0,0,0,0,-0.0238,-0.0242,-0.0238,-0.0281,-0.0291,-0.0312,-0.0338,-0.0348,-0.0365,-0.0368,-0.041,-0.0417,-0.0444,-0.0465,-0.0471,-0.0438,-0.0484,-0.0529,-0.0529,-0.0529,-0.0411,-0.0403,-0.0396,0,0,0,0,0,-0.0236,-0.0223,-0.0237,-0.0242,-0.0283,-0.0311,-0.032,-0.0354,-0.0364,-0.0369,-0.0397,-0.0415,-0.0469,-0.0467,-0.0474,-0.044,-0.0529,-0.0529,-0.0529,-0.0415,-0.0404,-0.0396,0,0,0,0,0,0,-0.02,-0.0229,-0.0244,-0.0242,-0.0272,-0.0319,-0.0322,-0.0347,-0.0375,-0.0374,-0.0414,-0.0423,-0.042,-0.046,-0.0457,-0.046,-0.0502,-0.0503,-0.0413,-0.0403,-0.0396,-0.0373,-0.0486,0,0,0,0,0,-0.019,-0.0188,-0.0226,-0.0224,-0.0233,-0.0277,-0.0292,-0.0316,-0.0346,-0.0359,-0.039,-0.0419,-0.0427,-0.0439,-0.0461,-0.0466,-0.0501,-0.0453,-0.0445,-0.0438,-0.0428,-0.0457,-0.0449,-0.0528,-0.0528,-0.0528,0,0,-0.0176,-0.019,-0.019,-0.0217,-0.024,-0.0238,-0.0286,-0.0301,-0.0294,-0.0359,-0.0358,-0.0389,-0.0423,-0.042,-0.0424,-0.0448,-0.0435,-0.0438,-0.0431,-0.0425,-0.0455,-0.0447,-0.044,-0.0528,-0.0528,-0.0528,0,0,-0.0141,-0.0158,-0.0143,-0.0159,-0.0186,-0.0209,-0.0208,-0.0252,-0.0265,-0.028,-0.0307,-0.032,-0.036,-0.0365,-0.0373,-0.0342,-0.0387,-0.0354,-0.0296,-0.0323,-0.0316,-0.031,-0.0338,-0.0335,-0.0355,-0.0355,-0.0355,0,-0.0122,-0.0111,-0.0145,-0.0133,-0.0129,-0.0186,-0.0163,-0.0185,-0.023,-0.0224,-0.0266,-0.0295,-0.0327,-0.0295,-0.0288,-0.0317,-0.0349,-0.0319,-0.0309,-0.0304,-0.03,-0.033,-0.0329,-0.0349,-0.035,-0.035,-0.0351,0,-0.0077,-0.0067,-0.0058,-0.0053,-0.0053,-0.0049,-0.0071,-0.0078,-0.0105,-0.0127,-0.0123,-0.0179,-0.0196,-0.0206,-0.0238,-0.0214,-0.025,-0.0286,-0.0322,-0.0284,-0.0319,-0.032,-0.0341,-0.0343,-0.0345,-0.0346,0,0,-0.0033,-0.0027,-0.0022,-0.0002,-0.0009,-0.0002,0.0025,0.0033,0.006,0.0003,0.0032,0.0,-0.0043,-0.0057,-0.0099,-0.013,-0.0131,-0.0196,-0.02,-0.0203,-0.0195,-0.0231,-0.0237,-0.0168,-0.0167,-0.0167,-0.0226,0,0.0012,0.0059,0.0053,0.0106,0.0133,0.0113,0.0143,0.0148,0.0135,0.0141,0.0093,0.0094,0.0019,0.0011,-0.0026,-0.0104,-0.013,-0.0112,-0.0249,-0.0252,-0.0273,-0.0238,-0.0229,-0.0282,-0.0228,-0.0228,-0.0228,0,0.0066,0.0091,0.0152,0.0194,0.0206,0.0229,0.0283,0.0303,0.0308,0.029,0.0277,0.0232,0.02,0.0116,0.0008,0.0019,-0.0073,-0.0146,-0.0151,-0.0227,-0.0291,-0.0316,-0.0287,-0.0514,-0.0231,-0.023,-0.023,0,0.0129,0.0168,0.0223,0.0236,0.0269,0.0301,0.0324,0.0351,0.0394,0.0389,0.0407,0.0346,0.0315,0.0198,0.0043,0.0024,-0.0092,-0.0138,-0.025,-0.0255,-0.0295,-0.0303,-0.0483,-0.0206,-0.0205,-0.0205,-0.0205,0,0.0188,0.0232,0.0249,0.0281,0.0355,0.0361,0.0443,0.0453,0.0492,0.0564,0.0485,0.0514,0.0329,0.0244,0.0089,-0.0082,-0.0058,-0.0227,-0.0267,-0.0254,-0.0257,-0.0497,-0.0663,-0.0208,-0.0207,-0.0207,-0.0206,0,0.025,0.0257,0.0324,0.0366,0.0386,0.0444,0.0525,0.0591,0.0597,0.069,0.0697,0.0638,0.0517,0.0334,0.0137,-0.0015,-0.0328,-0.0245,-0.0218,-0.0253,-0.0574,-0.0734,-0.096,-0.112,-0.0373,-0.0375,-0.0376,0,0.0284,0.0322,0.0393,0.0447,0.0466,0.0542,0.0611,0.0643,0.0727,0.0779,0.0841,0.0753,0.0728,0.0416,0.0116,-0.0151,-0.0377,-0.0326,-0.0359,-0.0584,-0.0791,-0.0873,-0.0998,-0.0365,-0.0366,-0.0367,-0.0367,0,0.0354,0.0377,0.0434,0.0541,0.0617,0.0711,0.0808,0.0889,0.0949,0.1023,0.1098,0.1083,0.0779,0.0509,0.0115,-0.0087,-0.053,-0.0349,-0.0587,-0.0804,-0.09,-0.1074,-0.0343,-0.0373,-0.0373,-0.0372,-0.0372,-0.0372,0.0411,0.0467,0.0545,0.0649,0.0745,0.0876,0.0977,0.1093,0.1233,0.1389,0.1328,0.1395,0.0948,0.0411,0.0038,-0.0574,-0.0611,-0.0733,-0.0906,-0.0964,-0.1132,-0.0415,-0.0491,-0.0491,-0.0491,-0.0491,-0.0491,0,0.0488,0.0552,0.0655,0.0783,0.0906,0.0938,0.1115,0.124,0.1427,0.1607,0.1687,0.1587,0.0994,0.0398,-0.0449,-0.0975,-0.1195,-0.1285,-0.1409,-0.1514,-0.0864,-0.0876,-0.1032,-0.1031,-0.1031,-0.1031,-0.1031,-0.103,0.0532,0.0645,0.0696,0.0896,0.0994,0.1174,0.1286,0.1477,0.1661,0.193,0.2065,0.2099,0.1704,0.0035,-0.1107,-0.1437,-0.1898,-0.2002,-0.2242,-0.1802,-0.1762,-0.1725,-0.1772,-0.2113,-0.2114,-0.2789,-0.2796,-0.2801]}],[{"header":{"parameterUnit":"m.s-1","parameterCategory":2,"la1":30.2991,"la2":30.254,"lo1":-89.0895,"lo2":-89.0444,"dy":0.0017,"dx":0.0017,"nx":28,"ny":28,"refTime":"2025-03-18T21:00:00:Z","depth":"2","parameterNumber":2,"parameterNumberName":"U-component_of_CURRENTS"},"data":[0,0,0,0,0,0,0,0,0,0,0,0,0,0,0,0,0,0,0,0,0,0,0,0,0,0,0,0,0,0,0,0,0,0,0,0,0,0,0,0,0,0,0,0,0,0,0,0,0,0,0,0,0,0,0,0,0,0,0.2696,0.2697,0,0.2694,0.2694,0.2694,0.2676,0.2676,0.2676,0.2676,0.2678,0.2678,0.2679,0,0,0,0,0,0,0,0,0,0,0,0,0,0.2665,0.2665,0.2696,0.2697,0.2697,0.2694,0.2694,0.2694,0.2676,0.2676,0.2676,0.2676,0.2678,0.2678,0.2679,0,0,0,0,0,0,0,0,0,0,0,0,0,0.2669,0.2666,0.2696,0.269,0.269,0.2694,0.2694,0.2694,0.2676,0.2676,0.2676,0.2676,0.2678,0.2678,0.2679,0.2686,0,0,0.268,0.268,0,0,0,0,0,0,0,0,0.2669,0.267,0.2691,0.2691,0.269,0.2688,0.2684,0.2692,0.2676,0.2678,0.2676,0.2676,0.2684,0.2684,0.268,0.2686,0.2686,0.268,0.268,0.268,0.268,0,0,0,0,0,0,0,0.2669,0.267,0.2693,0.2691,0.2691,0.2681,0.2681,0.2685,0.268,0.2678,0.2678,0.2682,0.2683,0.2679,0.268,0.2686,0.268,0.268,0.268,0.268,0.2756,0.2757,0,0,0,0,0,0,0.2677,0.267,0.2693,0.2693,0.2682,0.2682,0.2682,0.2686,0.268,0.268,0.2682,0.2681,0.2679,0.2679,0.268,0.2729,0.268,0.268,0.268,0.2754,0.2756,0.2758,0,0,0,0,0,0,0.2676,0.2679,0.2693,0.2684,0.2685,0.2683,0.2688,0.2687,0.2689,0.2684,0.2683,0.2688,0.2679,0.2679,0.2694,0.2728,0.268,0.2681,0.2752,0.2755,0.2757,0.2802,0,0,0,0,0,0,0.2675,0.2678,0.2684,0.2684,0.2686,0.2704,0.2689,0.2687,0.2694,0.2692,0.2688,0.2688,0.2679,0.2693,0.2694,0.2727,0.2681,0.275,0.2753,0.2756,0.2798,0.2806,0.2812,0,0,0,0,0,0.2674,0.2685,0.2685,0.2688,0.2694,0.2705,0.2704,0.27,0.2694,0.27,0.2699,0.2688,0.2716,0.2694,0.2695,0.2729,0.2748,0.2752,0.2756,0.2795,0.2804,0.2812,0,0,0,0,0,0,0.2672,0.2685,0.2684,0.2698,0.2705,0.2703,0.2707,0.2707,0.2709,0.2708,0.27,0.27,0.2723,0.2725,0.2701,0.2764,0.2735,0.274,0.2765,0.2774,0.2781,0.2833,0.2681,0,0,0,0,0,0.2676,0.2688,0.2697,0.2707,0.2711,0.2711,0.2714,0.2714,0.2717,0.2717,0.2719,0.2728,0.2741,0.2754,0.2757,0.279,0.2807,0.2819,0.2826,0.2832,0.2877,0.2942,0.2959,0.2772,0.2771,0.2771,0,0,0.2677,0.2686,0.2693,0.2708,0.2708,0.2721,0.2711,0.2722,0.2747,0.2719,0.2749,0.2743,0.2752,0.2783,0.2798,0.2791,0.2882,0.2837,0.2841,0.2885,0.2948,0.2966,0.2982,0.2774,0.2774,0.2773,0,0,0.2687,0.2694,0.2708,0.2709,0.2721,0.2731,0.2739,0.2747,0.2767,0.2792,0.2783,0.2818,0.282,0.2856,0.2868,0.2927,0.2907,0.2909,0.2999,0.306,0.3077,0.3091,0.3082,0.3096,0.2925,0.2925,0.2925,0,0.2689,0.2717,0.2713,0.2718,0.274,0.2739,0.2768,0.278,0.2797,0.284,0.2811,0.287,0.2873,0.2947,0.2968,0.2948,0.2945,0.2958,0.307,0.3086,0.31,0.3088,0.3102,0.2928,0.2928,0.2927,0.2927,0,0.2705,0.2727,0.2734,0.2753,0.2767,0.2795,0.2815,0.2848,0.2873,0.2899,0.2971,0.2978,0.3024,0.3027,0.3016,0.3122,0.3069,0.3057,0.3047,0.3122,0.3103,0.3117,0.2932,0.2931,0.293,0.2929,0,0,0.2716,0.275,0.275,0.2779,0.2802,0.2818,0.2875,0.2953,0.3004,0.3031,0.3111,0.3161,0.3166,0.3186,0.3176,0.3246,0.3323,0.3202,0.3204,0.319,0.3401,0.3391,0.3405,0.3317,0.3322,0.3325,0.3326,0,0.2746,0.2783,0.2801,0.2851,0.2881,0.2915,0.2973,0.3029,0.3072,0.3133,0.3192,0.3232,0.3221,0.3232,0.3308,0.332,0.3372,0.3321,0.3336,0.3336,0.3319,0.3428,0.306,0.3036,0.334,0.3342,0.3344,0,0.2757,0.2793,0.285,0.2936,0.2955,0.2984,0.3093,0.3144,0.3228,0.3268,0.3333,0.3324,0.3428,0.3387,0.3498,0.3454,0.3449,0.3457,0.3456,0.346,0.3359,0.3023,0.305,0.3368,0.3366,0.3364,0.3363,0,0.2761,0.2833,0.2898,0.2911,0.299,0.3049,0.3111,0.319,0.3252,0.3338,0.3373,0.3459,0.3496,0.3546,0.3548,0.3524,0.3638,0.3598,0.358,0.3574,0.3281,0.3246,0.369,0.369,0.369,0.3691,0.3691,0,0.2785,0.2829,0.2903,0.292,0.3011,0.3065,0.316,0.3231,0.3323,0.339,0.3433,0.3483,0.3544,0.358,0.3583,0.3635,0.3665,0.3641,0.3613,0.328,0.3247,0.356,0.3545,0.369,0.369,0.369,0.369,0,0.2752,0.2806,0.2866,0.2965,0.3,0.3051,0.3166,0.3224,0.3331,0.341,0.3435,0.3524,0.3602,0.3621,0.3688,0.3681,0.3718,0.3709,0.3289,0.3218,0.3591,0.3578,0.3722,0.3723,0.3723,0.3723,0.3724,0,0.2742,0.2767,0.2855,0.2881,0.2923,0.301,0.3068,0.3203,0.3267,0.3426,0.3464,0.3554,0.3603,0.3698,0.3615,0.3606,0.3732,0.3349,0.3301,0.3656,0.3613,0.3599,0.3586,0.2869,0.2862,0.2857,0.2852,0,0.2711,0.2733,0.2771,0.2819,0.2875,0.2939,0.3042,0.3095,0.3256,0.3326,0.3444,0.3496,0.354,0.3378,0.3375,0.3332,0.3335,0.325,0.3721,0.2966,0.2866,0.282,0.2831,0.2804,0.2808,0.2812,0.2815,0.2817,0.2672,0.2674,0.2709,0.2752,0.2804,0.2848,0.2886,0.2899,0.2968,0.2965,0.3214,0.3146,0.3188,0.298,0.2912,0.284,0.3089,0.2993,0.3002,0.3019,0.2969,0.2882,0.2806,0.281,0.2815,0.2818,0.2821,0,0.2575,0.2614,0.2643,0.2681,0.2646,0.2755,0.2848,0.2735,0.2659,0.2672,0.2666,0.2461,0.2379,0.2461,0.2237,0.2305,0.2185,0.229,0.2085,0.2136,0.2181,0.2082,0.1686,0.1683,0.168,0.1677,0,0,0.2533,0.2498,0.2507,0.2467,0.2525,0.2418,0.2446,0.226,0.218,0.1974,0.1919,0.2038,0.23,0.1885,0.189,0.1759,0.1917,0.1685,0.2585,0.2384,0.2425,0.2573,0.248,0,0,0,0,0]},{"header":{"parameterUnit":"m.s-1","parameterCategory":2,"la1":30.2991,"la2":30.254,"lo1":-89.0895,"lo2":-89.0444,"dy":0.0017,"dx":0.0017,"nx":28,"ny":28,"refTime":"2025-03-18T21:00:00:Z","depth":"2","parameterNumber":3,"parameterNumberName":"V-component_of_CURRENTS"},"data":[0,0,0,0,0,0,0,0,0,0,0,0,0,0,0,0,0,0,0,0,0,0,0,0,0,0,0,0,0,0,0,0,0,0,0,0,0,0,0,0,0,0,0,0,0,0,0,0,0,0,0,0,0,0,0,0,0,0,-0.0237,-0.0238,0,-0.0319,-0.032,-0.0321,-0.0372,-0.0372,-0.0372,-0.0372,-0.0434,-0.0435,-0.0437,0,0,0,0,0,0,0,0,0,0,0,0,0,-0.019,-0.019,-0.0237,-0.0238,-0.0238,-0.0319,-0.032,-0.0321,-0.0372,-0.0372,-0.0372,-0.0372,-0.0433,-0.0435,-0.0437,0,0,0,0,0,0,0,0,0,0,0,0,0,-0.0237,-0.019,-0.0237,-0.0272,-0.0276,-0.0318,-0.032,-0.0322,-0.0372,-0.0372,-0.0372,-0.0373,-0.0433,-0.0435,-0.0437,-0.0449,0,0,-0.0444,-0.0445,0,0,0,0,0,0,0,0,-0.0234,-0.0239,-0.0266,-0.027,-0.0274,-0.0334,-0.0326,-0.0363,-0.0372,-0.0338,-0.0372,-0.0373,-0.0397,-0.0402,-0.0421,-0.0452,-0.0455,-0.0445,-0.0446,-0.0447,-0.0448,0,0,0,0,0,0,0,-0.0231,-0.0236,-0.0271,-0.0267,-0.0272,-0.0306,-0.0313,-0.0334,-0.0367,-0.0341,-0.0344,-0.035,-0.0399,-0.0418,-0.0422,-0.0455,-0.0445,-0.0447,-0.0448,-0.0449,-0.0499,-0.0499,0,0,0,0,0,0,-0.0213,-0.0232,-0.0269,-0.0274,-0.0252,-0.0306,-0.0314,-0.0316,-0.0367,-0.0375,-0.035,-0.0352,-0.0414,-0.042,-0.0425,-0.0399,-0.0447,-0.0449,-0.0451,-0.0499,-0.0499,-0.0499,0,0,0,0,0,0,-0.0211,-0.0215,-0.0265,-0.0254,-0.0262,-0.0306,-0.0309,-0.0317,-0.0334,-0.0374,-0.0381,-0.0356,-0.0415,-0.0421,-0.044,-0.0403,-0.045,-0.0452,-0.0499,-0.0499,-0.0499,-0.0374,0,0,0,0,0,0,-0.021,-0.0214,-0.021,-0.0252,-0.0262,-0.0283,-0.0309,-0.0319,-0.0336,-0.034,-0.0382,-0.0388,-0.0415,-0.0436,-0.0442,-0.0407,-0.0454,-0.0499,-0.0499,-0.0499,-0.0378,-0.037,-0.0363,0,0,0,0,0,-0.0208,-0.0195,-0.0209,-0.0213,-0.0254,-0.0282,-0.0291,-0.0325,-0.0336,-0.034,-0.0369,-0.0387,-0.0439,-0.0438,-0.0445,-0.041,-0.0499,-0.0499,-0.0499,-0.0382,-0.0372,-0.0363,0,0,0,0,0,0,-0.0172,-0.0201,-0.0216,-0.0213,-0.0243,-0.029,-0.0293,-0.0318,-0.0346,-0.0345,-0.0385,-0.0394,-0.039,-0.0431,-0.0428,-0.0429,-0.0472,-0.0474,-0.0381,-0.0372,-0.0364,-0.0342,-0.0456,0,0,0,0,0,-0.0162,-0.016,-0.0198,-0.0196,-0.0205,-0.0248,-0.0263,-0.0287,-0.0317,-0.033,-0.0361,-0.039,-0.0397,-0.0409,-0.043,-0.0435,-0.0471,-0.0422,-0.0414,-0.0406,-0.0397,-0.0427,-0.042,-0.0498,-0.0498,-0.0498,0,0,-0.0148,-0.0162,-0.0162,-0.0188,-0.0211,-0.0207,-0.0258,-0.0272,-0.0264,-0.033,-0.0329,-0.0358,-0.0393,-0.0389,-0.0392,-0.0417,-0.0403,-0.0406,-0.0399,-0.0394,-0.0426,-0.0418,-0.0411,-0.0498,-0.0498,-0.0498,0,0,-0.0113,-0.0129,-0.0115,-0.0129,-0.0156,-0.0178,-0.0177,-0.0221,-0.0235,-0.0249,-0.0277,-0.0289,-0.0328,-0.0333,-0.034,-0.0308,-0.0354,-0.032,-0.0263,-0.0291,-0.0284,-0.0278,-0.0305,-0.0303,-0.0322,-0.0322,-0.0321,0,-0.0094,-0.0082,-0.0117,-0.0103,-0.0098,-0.0155,-0.0131,-0.0152,-0.0197,-0.0193,-0.0234,-0.0263,-0.0293,-0.0262,-0.0254,-0.0282,-0.0316,-0.0286,-0.0277,-0.0272,-0.0268,-0.0298,-0.0297,-0.0316,-0.0316,-0.0317,-0.0317,0,-0.0048,-0.0038,-0.0028,-0.0021,-0.0019,-0.0015,-0.0035,-0.0043,-0.007,-0.0092,-0.0088,-0.0144,-0.0161,-0.017,-0.0202,-0.0179,-0.0216,-0.0252,-0.029,-0.0252,-0.0287,-0.0288,-0.0307,-0.0309,-0.0311,-0.0312,0,0,-0.0005,0.0002,0.0008,0.0028,0.0026,0.0033,0.0062,0.007,0.0096,0.004,0.0067,0.0037,-0.0007,-0.0021,-0.0064,-0.0096,-0.0097,-0.0163,-0.0167,-0.0169,-0.0163,-0.02,-0.0205,-0.0135,-0.0134,-0.0134,-0.0193,0,0.004,0.0089,0.0084,0.014,0.0167,0.0148,0.018,0.0186,0.0173,0.0179,0.0129,0.013,0.0056,0.0046,0.0008,-0.0071,-0.0097,-0.0078,-0.0217,-0.0221,-0.0242,-0.0207,-0.0171,-0.0222,-0.0195,-0.0195,-0.0195,0,0.0095,0.012,0.0182,0.0225,0.0237,0.0262,0.0318,0.0338,0.0344,0.0325,0.0312,0.0267,0.0234,0.015,0.004,0.0051,-0.0041,-0.0114,-0.0119,-0.0198,-0.026,-0.0261,-0.0226,-0.0198,-0.0198,-0.0198,-0.0198,0,0.0156,0.0196,0.0251,0.0265,0.0301,0.0332,0.0356,0.0385,0.0428,0.0422,0.044,0.0379,0.0347,0.0229,0.0073,0.0055,-0.0063,-0.0108,-0.0221,-0.0225,-0.0244,-0.0251,-0.0177,-0.0177,-0.0177,-0.0177,-0.0177,0,0.0215,0.0259,0.0276,0.0308,0.0382,0.039,0.0471,0.0482,0.0522,0.0594,0.0517,0.0544,0.036,0.0274,0.012,-0.0053,-0.0029,-0.0199,-0.0238,-0.0202,-0.0203,-0.0229,-0.0234,-0.0179,-0.0179,-0.0178,-0.0178,0,0.0277,0.0284,0.0351,0.0392,0.0412,0.047,0.0552,0.0619,0.0625,0.0718,0.0725,0.0667,0.0544,0.0362,0.0165,0.0013,-0.0152,-0.0217,-0.0163,-0.0196,-0.0306,-0.0304,-0.0343,-0.0345,-0.0346,-0.0347,-0.0348,0,0.031,0.0349,0.0419,0.0473,0.0492,0.0568,0.0637,0.0669,0.0754,0.0806,0.0867,0.0778,0.075,0.0438,0.0156,-0.0107,-0.0157,-0.0272,-0.0302,-0.0286,-0.032,-0.0317,-0.0313,-0.0276,-0.0277,-0.0277,-0.0277,0,0.0381,0.0403,0.046,0.0566,0.0643,0.0737,0.0834,0.0914,0.0975,0.1047,0.112,0.1102,0.0812,0.0548,0.0159,-0.0027,-0.0232,-0.0288,-0.0275,-0.0244,-0.0229,-0.0261,-0.0259,-0.028,-0.028,-0.0279,-0.0279,-0.0279,0.0437,0.0493,0.0571,0.0674,0.0771,0.0902,0.1002,0.1119,0.1257,0.1386,0.1313,0.1285,0.0953,0.0479,0.0133,-0.0239,-0.0223,-0.0362,-0.0359,-0.0355,-0.0341,-0.033,-0.0397,-0.0397,-0.0397,-0.0398,-0.0398,0,0.0525,0.0578,0.068,0.0808,0.0943,0.0962,0.1139,0.1273,0.1459,0.153,0.1574,0.1276,0.0934,0.0548,0.0017,-0.031,-0.0327,-0.0435,-0.0378,-0.0373,-0.0369,-0.0354,-0.0415,-0.0416,-0.0417,-0.0418,0,0,0.0572,0.0689,0.0741,0.0945,0.1033,0.1236,0.1348,0.1534,0.1644,0.1755,0.1712,0.156,0.108,0.0682,0.0227,-0.0083,-0.015,-0.0152,-0.0101,0.0027,0.0035,-0.0291,-0.0258,0,0,0,0,0]}],[{"header":{"parameterUnit":"m.s-1","parameterCategory":2,"la1":30.2991,"la2":30.254,"lo1":-89.0895,"lo2":-89.0444,"dy":0.0017,"dx":0.0017,"nx":28,"ny":28,"refTime":"2025-03-18T21:00:00:Z","depth":"4","parameterNumber":2,"parameterNumberName":"U-component_of_CURRENTS"},"data":[0,0,0,0,0,0,0,0,0,0,0,0,0,0,0,0,0,0,0,0,0,0,0,0,0,0,0,0,0,0,0,0,0,0,0,0,0,0,0,0,0,0,0,0,0,0,0,0,0,0,0,0,0,0,0,0,0,0,0.1257,0.1258,0,0.1287,0.1287,0.1288,0.1309,0.131,0.131,0.1311,0.1328,0.1328,0.1328,0,0,0,0,0,0,0,0,0,0,0,0,0,0.1186,0.1187,0.1257,0.1258,0.1259,0.1287,0.1287,0.1288,0.1309,0.131,0.1311,0.1311,0.1328,0.1328,0.1328,0,0,0,0,0,0,0,0,0,0,0,0,0,0.1213,0.1187,0.1257,0.1276,0.1278,0.1287,0.1287,0.1288,0.1309,0.131,0.1311,0.1311,0.1328,0.1328,0.1328,0.1311,0,0,0.1327,0.1327,0,0,0,0,0,0,0,0,0.1211,0.1215,0.1272,0.1275,0.1277,0.1299,0.1269,0.1296,0.1309,0.1293,0.1311,0.1312,0.1319,0.1319,0.1318,0.1312,0.1313,0.1327,0.1327,0.1327,0.1327,0,0,0,0,0,0,0,0.1209,0.1214,0.1265,0.1273,0.1276,0.1272,0.1276,0.1273,0.1298,0.1295,0.1297,0.1306,0.1319,0.1318,0.1319,0.1313,0.1327,0.1327,0.1327,0.1327,0.1383,0.1384,0,0,0,0,0,0,0.1214,0.1212,0.1265,0.1267,0.125,0.1273,0.1278,0.1288,0.1298,0.1302,0.1306,0.1307,0.1318,0.1319,0.1319,0.1454,0.1327,0.1327,0.1327,0.1381,0.1383,0.1385,0,0,0,0,0,0,0.1213,0.1219,0.1263,0.1243,0.1249,0.1274,0.1285,0.1288,0.1316,0.1308,0.131,0.1334,0.1318,0.1319,0.1341,0.1449,0.1327,0.1327,0.1379,0.1382,0.1384,0.1624,0,0,0,0,0,0,0.121,0.1218,0.1239,0.1243,0.125,0.1283,0.1284,0.1288,0.1321,0.1324,0.1332,0.1333,0.1319,0.1342,0.1341,0.1446,0.1327,0.1377,0.138,0.1383,0.1614,0.1634,0.1651,0,0,0,0,0,0.1208,0.1232,0.124,0.1247,0.1275,0.1284,0.1287,0.1304,0.1322,0.1333,0.1345,0.1334,0.136,0.1342,0.1342,0.145,0.1376,0.138,0.1383,0.1606,0.163,0.1651,0,0,0,0,0,0,0.1212,0.1236,0.1246,0.1277,0.1287,0.129,0.1318,0.1322,0.134,0.136,0.1345,0.1346,0.1421,0.137,0.1351,0.1464,0.137,0.1373,0.1539,0.1562,0.158,0.1558,0.1327,0,0,0,0,0,0.1223,0.1251,0.1261,0.1289,0.1304,0.1316,0.133,0.134,0.1352,0.1363,0.1372,0.1384,0.1427,0.144,0.1451,0.1495,0.1449,0.1559,0.1578,0.1594,0.157,0.1578,0.1597,0.1396,0.1396,0.1396,0,0,0.1232,0.1252,0.1268,0.1293,0.1313,0.134,0.1327,0.1362,0.1397,0.1361,0.1425,0.1455,0.1451,0.1528,0.1555,0.1504,0.1638,0.1599,0.1614,0.1579,0.1584,0.1604,0.1622,0.1398,0.1398,0.1397,0,0,0.126,0.1288,0.132,0.1334,0.1371,0.138,0.1397,0.142,0.145,0.1487,0.1515,0.1582,0.16,0.1648,0.1668,0.1774,0.1744,0.1802,0.1884,0.1897,0.1914,0.1928,0.1955,0.197,0.1806,0.1806,0.1807,0,0.1273,0.1304,0.1328,0.1361,0.138,0.1404,0.1432,0.147,0.1499,0.1548,0.1525,0.1642,0.1653,0.1784,0.184,0.1826,0.1823,0.1821,0.1926,0.1938,0.1949,0.1972,0.1985,0.1818,0.1817,0.1816,0.1814,0,0.1308,0.1344,0.1369,0.142,0.1446,0.1473,0.152,0.1583,0.1621,0.1658,0.1783,0.1801,0.1871,0.1919,0.1916,0.2043,0.202,0.1965,0.1883,0.1985,0.2002,0.2012,0.1835,0.1831,0.1827,0.1825,0,0,0.13,0.1375,0.1386,0.1411,0.1473,0.1492,0.1596,0.168,0.1751,0.1823,0.1915,0.2033,0.2074,0.2094,0.2137,0.215,0.2268,0.2106,0.2101,0.2157,0.2324,0.2166,0.216,0.2252,0.2253,0.2255,0.2329,0,0.1313,0.1372,0.141,0.1469,0.15,0.1569,0.1644,0.1742,0.1813,0.1913,0.2018,0.2112,0.2137,0.2199,0.2241,0.2244,0.2293,0.2252,0.219,0.2188,0.2055,0.2164,0.2259,0.2335,0.2337,0.2339,0.234,0,0.1323,0.1361,0.1417,0.1489,0.151,0.1558,0.1686,0.1753,0.1927,0.1983,0.2132,0.2212,0.235,0.2298,0.2388,0.2371,0.2377,0.2353,0.2354,0.211,0.2044,0.219,0.2355,0.2354,0.2353,0.2352,0.2351,0,0.1287,0.1361,0.1403,0.1425,0.152,0.1584,0.1646,0.1795,0.1868,0.205,0.212,0.2287,0.2357,0.2399,0.2437,0.2424,0.2463,0.2426,0.23,0.2291,0.2306,0.2288,0.2469,0.2469,0.2469,0.2468,0.2468,0,0.1264,0.1301,0.1393,0.1416,0.1477,0.1556,0.1645,0.1743,0.1884,0.1981,0.2162,0.2254,0.2376,0.2453,0.2466,0.2417,0.2507,0.2321,0.2294,0.2411,0.2404,0.2316,0.2297,0.2471,0.2471,0.247,0.247,0,0.122,0.1278,0.1333,0.1433,0.1465,0.1516,0.1633,0.1701,0.1831,0.1964,0.2042,0.2247,0.2333,0.2433,0.2473,0.2416,0.2393,0.2359,0.2512,0.249,0.2215,0.2208,0.2219,0.2214,0.221,0.2206,0.2203,0,0.1196,0.1224,0.1332,0.1368,0.1415,0.1494,0.1552,0.1676,0.1743,0.1947,0.2006,0.2175,0.2301,0.2246,0.2336,0.2355,0.2325,0.2308,0.2236,0.2214,0.2188,0.2188,0.2186,0.2197,0.2195,0.2194,0.2193,0,0.1151,0.1209,0.1259,0.1327,0.1388,0.1436,0.1524,0.1551,0.1703,0.1847,0.1934,0.2016,0.2097,0.2154,0.2181,0.2192,0.2306,0.2263,0.2271,0.2203,0.2187,0.2165,0.2168,0.2178,0.218,0.2182,0.2183,0,0.1125,0.1149,0.1223,0.1268,0.1338,0.1353,0.1404,0.1469,0.1538,0.1749,0.1776,0.1939,0.208,0.2071,0.2103,0.2093,0.2056,0.1975,0.1998,0.2015,0.1911,0.1857,0.173,0,0,0,0,0,0.1087,0.1105,0.1151,0.1187,0.1249,0.1277,0.1378,0.1433,0.1576,0.1589,0.1669,0.1753,0.181,0.1894,0.1841,0.2009,0.206,0.1938,0.1978,0.2096,0.2113,0.2007,0,0,0,0,0,0,0.1064,0.1114,0.1124,0.1104,0.1105,0.1148,0.12,0.1295,0.13,0.1463,0.1505,0.1632,0.1715,0.1817,0.1804,0.1826,0.1809,0.2032,0.2027,0.2086,0.2102,0.2115,0.2012,0,0,0,0,0]},{"header":{"parameterUnit":"m.s-1","parameterCategory":2,"la1":30.2991,"la2":30.254,"lo1":-89.0895,"lo2":-89.0444,"dy":0.0017,"dx":0.0017,"nx":28,"ny":28,"refTime":"2025-03-18T21:00:00:Z","depth":"4","parameterNumber":3,"parameterNumberName":"V-component_of_CURRENTS"},"data":[0,0,0,0,0,0,0,0,0,0,0,0,0,0,0,0,0,0,0,0,0,0,0,0,0,0,0,0,0,0,0,0,0,0,0,0,0,0,0,0,0,0,0,0,0,0,0,0,0,0,0,0,0,0,0,0,0,0,0.0218,0.0217,0,0.0168,0.0167,0.0167,0.0141,0.0141,0.0141,0.0141,0.015,0.015,0.0151,0,0,0,0,0,0,0,0,0,0,0,0,0,0.0261,0.026,0.0218,0.0217,0.0217,0.0168,0.0167,0.0167,0.0141,0.0141,0.0141,0.0141,0.015,0.015,0.0151,0,0,0,0,0,0,0,0,0,0,0,0,0,0.023,0.026,0.0218,0.0197,0.0195,0.0168,0.0167,0.0167,0.0141,0.0141,0.0141,0.0141,0.015,0.015,0.0151,0.0157,0,0,0.0152,0.0152,0,0,0,0,0,0,0,0,0.0232,0.0229,0.0201,0.0199,0.0196,0.016,0.0186,0.0166,0.0141,0.0163,0.0141,0.0141,0.0158,0.0158,0.0149,0.0157,0.0157,0.0152,0.0152,0.0153,0.0153,0,0,0,0,0,0,0,0.0234,0.0231,0.0199,0.02,0.0197,0.018,0.0176,0.0181,0.0164,0.0161,0.0158,0.0152,0.0157,0.0149,0.015,0.0158,0.0152,0.0153,0.0153,0.0153,0.0187,0.0188,0,0,0,0,0,0,0.0241,0.0233,0.0201,0.0197,0.0213,0.018,0.0175,0.0172,0.0162,0.016,0.0152,0.0151,0.0148,0.0149,0.015,0.0159,0.0153,0.0153,0.0153,0.0187,0.0187,0.0188,0,0,0,0,0,0,0.0242,0.0239,0.0203,0.0213,0.0207,0.0179,0.0176,0.0171,0.0163,0.0155,0.0154,0.0149,0.0148,0.0149,0.0169,0.016,0.0153,0.0154,0.0186,0.0187,0.0188,0.0177,0,0,0,0,0,0,0.0243,0.0239,0.0243,0.0214,0.0207,0.0196,0.0176,0.0171,0.0159,0.0157,0.0152,0.0152,0.0148,0.0168,0.0169,0.016,0.0154,0.0185,0.0186,0.0187,0.0176,0.0177,0.0178,0,0,0,0,0,0.0245,0.0252,0.0244,0.024,0.0212,0.0197,0.0192,0.0172,0.0159,0.0163,0.0164,0.0153,0.0176,0.017,0.017,0.0161,0.0185,0.0186,0.0187,0.0176,0.0177,0.0178,0,0,0,0,0,0,0.0274,0.0249,0.0239,0.0238,0.0223,0.0192,0.019,0.0175,0.0175,0.0172,0.0166,0.0167,0.0171,0.018,0.0173,0.0177,0.0176,0.0178,0.0167,0.0168,0.0169,0.0194,0.0155,0,0,0,0,0,0.0281,0.0281,0.0254,0.0256,0.0246,0.0219,0.021,0.0194,0.0185,0.0183,0.0185,0.0186,0.0176,0.0186,0.0182,0.0198,0.0186,0.0193,0.0193,0.0194,0.0217,0.0185,0.0184,0.0193,0.0193,0.0192,0,0,0.0294,0.028,0.0281,0.0262,0.0245,0.0244,0.0213,0.02,0.0206,0.0187,0.0207,0.0185,0.018,0.0183,0.0187,0.0193,0.0182,0.0196,0.0196,0.022,0.0186,0.0185,0.0184,0.0193,0.0193,0.0193,0,0,0.0318,0.0305,0.0311,0.0299,0.0275,0.0261,0.026,0.0235,0.0232,0.0245,0.0218,0.0205,0.0216,0.0201,0.0195,0.0208,0.0177,0.0197,0.0232,0.0198,0.0197,0.0196,0.0158,0.0154,0.0208,0.0208,0.0208,0,0.0335,0.034,0.0312,0.0311,0.0314,0.0273,0.0287,0.0273,0.0264,0.0267,0.0259,0.0239,0.0226,0.0215,0.0215,0.0207,0.0183,0.0221,0.0197,0.0196,0.0195,0.0157,0.0152,0.0208,0.0208,0.0208,0.0208,0,0.0359,0.0365,0.0366,0.0361,0.036,0.0362,0.0342,0.0342,0.0333,0.0318,0.0308,0.0282,0.0275,0.0251,0.0239,0.0218,0.0199,0.0187,0.0189,0.0193,0.0153,0.0148,0.0208,0.0208,0.0208,0.0208,0,0,0.04,0.0388,0.0391,0.0405,0.0389,0.0395,0.0404,0.0405,0.041,0.0386,0.0395,0.0356,0.0323,0.0317,0.0277,0.0252,0.0203,0.0223,0.0222,0.0178,0.0121,0.0108,0.0101,0.0176,0.0176,0.0175,0.0088,0,0.0434,0.0457,0.0444,0.0481,0.0495,0.0472,0.05,0.049,0.0467,0.0463,0.041,0.0399,0.0352,0.0337,0.03,0.0228,0.0194,0.0228,0.0134,0.0132,0.0112,0.0097,0.0175,0.0084,0.0083,0.0082,0.0082,0,0.0467,0.0482,0.0526,0.0558,0.0565,0.0587,0.0612,0.0624,0.0589,0.0573,0.0526,0.0471,0.042,0.0383,0.027,0.0289,0.0215,0.0158,0.0153,0.0151,0.0111,0.0087,0.0073,0.0073,0.0074,0.0075,0.0075,0,0.0521,0.0544,0.0592,0.0598,0.0624,0.0654,0.0675,0.0662,0.0678,0.0631,0.0622,0.0538,0.0506,0.0402,0.0273,0.0267,0.0147,0.0122,0.004,0.0037,0.0079,0.0081,0.0051,0.0051,0.0052,0.0052,0.0052,0,0.0565,0.0603,0.0624,0.0648,0.0723,0.0722,0.0783,0.0776,0.0769,0.0782,0.0684,0.0661,0.051,0.041,0.029,0.015,0.0155,0.0051,0.0018,0.0074,0.0077,0.0073,0.0077,0.0048,0.0049,0.005,0.005,0,0.0613,0.0624,0.0679,0.0723,0.0748,0.0803,0.0861,0.0889,0.0875,0.088,0.087,0.0754,0.0621,0.0459,0.0287,0.0183,0.0047,-0.0003,0.007,0.0041,-0.0048,-0.0044,-0.0105,-0.0106,-0.0107,-0.0108,-0.0108,0,0.0637,0.067,0.0736,0.0778,0.0803,0.0878,0.0934,0.0949,0.0968,0.0932,0.0937,0.081,0.0713,0.0462,0.0289,0.0056,0.0024,-0.0053,-0.0049,-0.0036,-0.0062,-0.0056,-0.0051,-0.011,-0.011,-0.011,-0.0111,0,0.0684,0.0709,0.0749,0.0835,0.0902,0.0977,0.1044,0.1066,0.1075,0.1057,0.0981,0.0829,0.0677,0.0464,0.0283,0.0116,-0.0008,-0.0063,-0.0062,-0.006,-0.0043,-0.0067,-0.006,-0.0114,-0.0113,-0.0113,-0.0113,0,0.0718,0.0752,0.0805,0.0881,0.0967,0.1044,0.1081,0.1101,0.1122,0.107,0.1043,0.0863,0.0755,0.0495,0.0329,0.0161,0.0113,0.0055,0.0049,0.005,0.0118,0.0163,0.0133,0,0,0,0,0,0.0741,0.0775,0.0845,0.0927,0.1012,0.107,0.1137,0.116,0.1162,0.1118,0.108,0.0931,0.066,0.0541,0.0371,0.0309,0.0087,0.0104,0.0019,-0.0132,-0.0128,-0.0077,0,0,0,0,0,0,0.0755,0.0816,0.0842,0.0949,0.1016,0.112,0.1169,0.1177,0.1148,0.1115,0.0977,0.0888,0.0633,0.0764,0.037,0.0317,0.0237,-0.0024,-0.0028,-0.0134,-0.0131,-0.0128,-0.0073,0,0,0,0,0]}]]